Regional Weather Roundup
Issued by NWS Raleigh/Durham, NC

Home | Current Version | Previous Version | Text Only | Print | Product List | Glossary On
Versions: 1 2 3 4 5 6 7 8 9 10 11 12 13 14 15 16 17 18 19 20 21 22 23 24 25 26 27 28 29 30 31 32 33 34 35 36 37 38 39 40 41 42 43 44 45 46 47 48 49 50
000
ASUS42 KRAH 201110
RWRRAH
NORTH CAROLINA WEATHER ROUNDUP
NATIONAL WEATHER SERVICE RALEIGH NC
600 AM EST SAT DEC 20 2014

NOTE: "FAIR" INDICATES FEW OR NO CLOUDS BELOW 12,000 FEET WITH NO
SIGNIFICANT WEATHER AND/OR OBSTRUCTIONS TO VISIBILITY.

NCZ001-053-055-056-065-067-201200-
WESTERN NORTH CAROLINA

CITY           SKY/WX    TMP DP  RH WIND       PRES   REMARKS
ASHEVILLE      LGT RAIN  38  33  82 SE5       30.15S WCI  34
JEFFERSON      CLOUDY    32  24  73 CALM      30.14S
MORGANTON      RAIN      39  32  77 CALM      30.25R
HICKORY        LGT RAIN  39  32  76 NE5       30.20R
RUTHERFORDTON  LGT RAIN  40  33  75 NE3       30.19S
MOUNT AIRY     CLOUDY    37  26  66 NE3       30.25R
BOONE          CLOUDY    33  25  72 CALM      30.15F
$$

NCZ021-022-025-041-071-084-088-201200-
CENTRAL NORTH CAROLINA

CITY           SKY/WX    TMP DP  RH WIND       PRES   REMARKS
CHARLOTTE      LGT RAIN  41  33  73 N3        30.20R
GREENSBORO     CLOUDY    36  26  67 N5        30.22R WCI  32
WINSTON-SALEM  CLOUDY    35  25  66 NE8       30.25R WCI  29
RALEIGH-DURHAM CLOUDY    35  26  69 E7        30.26R WCI  29
FORT BRAGG     CLOUDY    40  32  74 NE6       30.23R
FAYETTEVILLE   CLOUDY    40  34  79 N9        30.22S WCI  34
BURLINGTON     CLOUDY    36  26  67 NE3       30.24R
LAURINBURG     CLOUDY    41  35  79 E5        30.22R
$$

NCZ011-015-027-028-043-044-047-080-103-201200-
NORTHEASTERN NORTH CAROLINA

CITY           SKY/WX    TMP DP  RH WIND       PRES   REMARKS
ROCKY MT-WILSO CLOUDY    34  28  79 NE3       30.27R
GREENVILLE     CLOUDY    34  32  93 N5        30.27R WCI  30
WASHINGTON     CLOUDY    34  31  89 N3        30.27R
ELIZABETH CITY CLOUDY    38  29  70 N9        30.26R WCI  31
MANTEO         CLOUDY    40  33  75 N7        30.24S
CAPE HATTERAS  CLOUDY    42  34  73 NE3       30.23S
$$

NCZ078-087-090-091-093-098-101-201200-
SOUTHEASTERN NORTH CAROLINA

CITY           SKY/WX    TMP DP  RH WIND       PRES   REMARKS
LUMBERTON      CLOUDY    43  33  68 E5        30.21R
GOLDSBORO      CLOUDY    37  36  97 NE2       30.24R
KENANSVILLE    CLOUDY    37  34  87 CALM      30.25R
NEW BERN       CLOUDY    40  34  79 NE6       30.26R
CHERRY POINT   CLOUDY    41  36  82 NE6       30.25R
BEAUFORT       CLOUDY    42  36  79 NE3       30.24R
JACKSONVILLE   CLOUDY    41  35  79 NE6       30.24R
WILMINGTON     CLOUDY    43  39  86 NE7       30.21R
$$



USA.gov is the U.S. government's official web portal to all federal, state and local government web resources and services.